LEMUR-2-JEREMIAH (46911 NORAD) Tracking and Keplerian Element Data

This shows tracking and keplerian element data for the satellite.

Feedback or suggestion? Click here.




ElementValue
Catalog46911
NameLEMUR-2-JEREMIAH
Epoch Orbit237
Epoch Day328.16317062
Epoch Year2020
RAAN6.5794
Inclination36.9048
Eccentricity0.0006802
Argument of Perigee105.8573
Mean Anonmoly254.2932
Mean Motion14.98945093
Decay Rate1.599E-05
L11 46911U 20081G 20328.16317062 .00001599 00000-0 13593-3 0 9991
L22 46911 36.9048 6.5794 0006802 105.8573 254.2932 14.98945093 2370

Live tracking and technical data element details for LEMUR-2-JEREMIAH (NORAD 46911). LEMUR-2-JEREMIAH can be tracked NOW for your location showing map with azimuth and elevation plus other details from your city location.

Track the satellite on the map from your city or location and see movement details for azimuth, elevation, latitude, longitude, range, height, and movement on the map or in text.







IsCatalogInMostPopularTable: catalog: 46911, numindb: 4
Update: records affected: 1



GetName: 46911 LEMUR-2-JEREMIAH

Hit Count: updated at: Tue, 24 Nov 2020 11:56:47 GMT